Pine Bluff, AR

9:23 PM CDT on August 23, 2016 (GMT -0500)
Grider

Weather History for KPBF - July, 2013

Change the Weather History Date:

Friday, July 26, 2013

  Actual Average Record
Temperature  
Mean Temperature 72 °F 82 °F  
Max Temperature 80 °F 93 °F 109 °F (1918)
Min Temperature 64 °F 72 °F 58 °F (1911)
Degree Days  
Heating Degree Days 0 0  
Month to date heating degree days 0 0  
Since 1 June heating degree days 0 0  
Since 1 July heating degree days 0 0  
Cooling Degree Days 7 17  
Month to date cooling degree days 393 441  
Year to date cooling degree days 1081 1170  
Since 1 June cooling degree days 814 863  
Growing Degree Days 22 (Base 50)    
Moisture  
Dew Point 65 °F    
Average Humidity 74    
Maximum Humidity 97    
Minimum Humidity 51    
Precipitation  
Precipitation 0.00 in 0.13 in 2.55 in (1974)
Month to date precipitation 0.15 3.33  
Year to date precipitation 29.57 30.11  
Snow  
Snow 0.00 in 0.00 in - ()
Month to date snowfall 0.0 0.0  
Since 1 June snowfall 0.0 0.0  
Since 1 July snowfall 0.0 0.0  
Snow Depth 0.00 in    
Sea Level Pressure  
Sea Level Pressure 30.03 in    
Wind  
Wind Speed 4 mph (East)    
Max Wind Speed 13 mph    
Max Gust Speed 20 mph    
Visibility 9 miles    
Events Rain    
T = Trace of Precipitation, MM = Missing Value Source: NWS Daily Summary

Daily Weather History Graph

Daily Weather History Graph

Search for Another Location

Airport or City:

Trip Planner

Search our weather history database for the weather conditions in past years. The results will help you decide how hot, cold, wet, or windy it might be!

Date:

Astronomy

Jul. 26, 2013 Rise Set
Actual Time 6:14 AM CDT 8:13 PM CDT
Civil Twilight 5:46 AM CDT 8:41 PM CDT
Nautical Twilight 5:13 AM CDT 9:14 PM CDT
Astronomical Twilight 4:36 AM CDT 9:50 PM CDT
Moon 10:44 PM CDT (7/26) 10:36 AM CDT (7/26)
Length of Visible Light 14h 54m
Length of Day
13h 58m
Waning Gibbous, 80% of the Moon is Illuminated
Jul 26
Waning Gibbous
Jul 29
Last Quarter
Aug 6
New
Aug 14
First Quarter
Aug 20
Full

Hourly Weather History & Observations

Time (CDT) Temp. Heat Index Dew Point Humidity Pressure Visibility Wind Dir Wind Speed Gust Speed Precip Events Conditions
12:53 AM 70.0 °F - 62.1 °F 76% 30.06 in 10.0 mi Calm Calm - N/A   Clear
1:53 AM 68.0 °F - 62.1 °F 81% 30.06 in 10.0 mi Calm Calm - N/A   Clear
2:53 AM 69.1 °F - 63.0 °F 81% 30.06 in 10.0 mi Calm Calm - N/A   Clear
3:53 AM 64.9 °F - 62.1 °F 90% 30.04 in 10.0 mi Calm Calm - N/A   Clear
4:53 AM 64.9 °F - 61.0 °F 87% 30.05 in 10.0 mi ENE 4.6 mph - N/A   Clear
5:53 AM 66.9 °F - 61.0 °F 81% 30.05 in 10.0 mi ENE 3.5 mph - N/A   Unknown
6:53 AM 66.9 °F - 63.0 °F 87% 30.06 in 10.0 mi Calm Calm - N/A   Clear
7:53 AM 69.1 °F - 64.0 °F 84% 30.06 in 10.0 mi South 4.6 mph - N/A   Clear
8:53 AM 75.0 °F - 63.0 °F 66% 30.07 in 10.0 mi ESE 4.6 mph - N/A   Clear
9:53 AM 79.0 °F - 61.0 °F 54% 30.06 in 10.0 mi SSE 4.6 mph - N/A   Clear
10:53 AM 79.0 °F - 61.0 °F 54% 30.07 in 10.0 mi SSE 4.6 mph - N/A   Clear
11:53 AM 80.1 °F 81.1 °F 61.0 °F 52% 30.06 in 10.0 mi SSE 5.8 mph - N/A   Clear
12:53 PM 79.0 °F - 62.1 °F 56% 30.05 in 10.0 mi ESE 4.6 mph - N/A   Scattered Clouds
1:53 PM 79.0 °F - 64.9 °F 62% 30.05 in 10.0 mi WSW 3.5 mph - 0.00 in   Mostly Cloudy
2:53 PM 75.9 °F - 68.0 °F 76% 30.04 in 10.0 mi SW 3.5 mph - 0.00 in Rain Light Rain
3:53 PM 75.0 °F - 68.0 °F 79% 30.03 in 10.0 mi NW 3.5 mph - 0.00 in Rain Light Rain
4:53 PM 73.9 °F - 68.0 °F 82% 30.01 in 10.0 mi NNE 5.8 mph - 0.00 in Rain Light Rain
5:53 PM 73.0 °F - 70.0 °F 90% 30.00 in 10.0 mi NNE 5.8 mph - 0.00 in Rain Light Rain
6:53 PM 72.0 °F - 69.1 °F 91% 30.01 in 6.0 mi NNE 4.6 mph - 0.00 in Rain Light Rain
7:53 PM 70.0 °F - 68.0 °F 93% 29.99 in 6.0 mi ENE 3.5 mph - N/A Rain Rain
8:53 PM 69.1 °F - 66.9 °F 93% 29.99 in 5.0 mi NE 8.1 mph - N/A Rain Heavy Rain
9:53 PM 69.1 °F - 66.0 °F 90% 29.99 in 5.0 mi Calm Calm - N/A Rain Rain
10:53 PM 69.1 °F - 66.9 °F 93% 29.98 in 8.0 mi NE 4.6 mph - N/A Rain Light Rain
11:53 PM 70.0 °F - 66.9 °F 90% 29.98 in 10.0 mi East 5.8 mph - N/A   Overcast